Location: Lafig�re
(44.4503°N, 4.0357°E)
Time: 14:15:26
(UTC+00:00)

ARGOS - Pass Details

Date: 31 January 2021
Orbit: 821 x 834 km, 98.4° (Epoch: 05 March)

Event Time Altitude Azimuth Distance (km) Brightness Sun altitude
Rises 19:05:05 0° 176° (S) 3,342 6.3 -23.9°
Reaches altitude 10° 19:07:27 10° 180° (S) 2,415 5.6 -24.3°
Maximum altitude 19:12:43 58° 259° (W) 956 3.7 -25.3°
Drops below altitude 10° 19:18:04 10° 339° (NNW) 2,441 5.8 -26.2°
Sets 19:20:29 0° 343° (NNW) 3,381 6.6 -26.6°
